AAL256 KPWM-KCLT

Flight info

Callsign AAL256
Flight time N/A
Altitude 34000
Route NUBLE4 NELIE Q75 GVE AIROW CHSLY6
Aircraft A320/M-SDE3FGHIRWY/LB1

Departure

Time 2026-05-08 19:51
Airport Portland International Jetport (KPWM)

Arrival

Time N/A
Airport Charlotte Douglas International Airport (KCLT)
Time Latitude Longitude Altitude Speed Heading
2026-05-08 19:24 43.64732 -70.31286 71 ft 0 kts 64°
2026-05-08 19:42 43.64730 -70.31292 70 ft 3 kts 64°
2026-05-08 19:42 43.64720 -70.31320 67 ft 3 kts 66°
2026-05-08 19:42 43.64720 -70.31321 67 ft 0 kts 66°
2026-05-08 19:43 43.64721 -70.31317 68 ft 0 kts 66°
2026-05-08 19:46 43.64721 -70.31316 68 ft 0 kts 66°
2026-05-08 19:46 43.64717 -70.31307 64 ft 2 kts 132°
2026-05-08 19:46 43.64687 -70.31320 69 ft 1 kts 197°
2026-05-08 19:47 43.64652 -70.31326 78 ft 12 kts 172°
2026-05-08 19:47 43.64604 -70.31234 72 ft 12 kts 97°
2026-05-08 19:47 43.64597 -70.31116 68 ft 12 kts 95°
2026-05-08 19:47 43.64589 -70.31002 67 ft 12 kts 95°
2026-05-08 19:48 43.64581 -70.30875 65 ft 17 kts 95°
2026-05-08 19:48 43.64568 -70.30687 62 ft 20 kts 95°
2026-05-08 19:48 43.64555 -70.30492 59 ft 21 kts 95°
2026-05-08 19:48 43.64574 -70.30346 58 ft 14 kts 73°
2026-05-08 19:49 43.64586 -70.30222 54 ft 13 kts 94°
2026-05-08 19:49 43.64580 -70.30099 55 ft 13 kts 94°
2026-05-08 19:49 43.64573 -70.29979 50 ft 12 kts 97°
2026-05-08 19:49 43.64530 -70.29915 51 ft 9 kts 175°
2026-05-08 19:50 43.64475 -70.29911 55 ft 7 kts 176°
2026-05-08 19:50 43.64427 -70.29908 55 ft 9 kts 182°
2026-05-08 19:50 43.64408 -70.29989 56 ft 10 kts 275°
2026-05-08 19:50 43.64419 -70.30142 56 ft 36 kts 276°
2026-05-08 19:51 43.64469 -70.30836 66 ft 105 kts 275°
2026-05-08 19:51 43.64552 -70.32098 135 ft 151 kts 276°
2026-05-08 19:51 43.64626 -70.33543 743 ft 150 kts 274°
2026-05-08 19:51 43.64678 -70.34956 1468 ft 145 kts 274°
2026-05-08 19:52 43.64728 -70.36333 2017 ft 143 kts 273°
2026-05-08 19:52 43.64779 -70.37698 2570 ft 142 kts 273°
2026-05-08 19:52 43.64831 -70.39050 3136 ft 140 kts 274°
2026-05-08 19:52 43.64888 -70.40462 3449 ft 158 kts 274°
2026-05-08 19:53 43.64957 -70.42083 3659 ft 180 kts 274°
2026-05-08 19:53 43.65006 -70.43932 3891 ft 206 kts 266°
2026-05-08 19:53 43.64471 -70.45881 4202 ft 235 kts 235°
2026-05-08 19:53 43.63144 -70.47361 4764 ft 253 kts 217°
2026-05-08 19:54 43.61659 -70.48710 5563 ft 258 kts 217°
2026-05-08 19:54 43.60642 -70.49630 6161 ft 259 kts 217°
2026-05-08 19:54 43.59131 -70.50997 7004 ft 261 kts 218°
2026-05-08 19:54 43.57601 -70.52384 7785 ft 265 kts 217°
2026-05-08 19:55 43.56053 -70.53793 8580 ft 268 kts 217°
2026-05-08 19:55 43.54487 -70.55220 9391 ft 272 kts 218°
2026-05-08 19:55 43.52882 -70.56633 10142 ft 277 kts 211°
2026-05-08 19:55 43.51063 -70.57629 10781 ft 288 kts 201°
2026-05-08 19:56 43.49069 -70.58458 10974 ft 311 kts 201°
2026-05-08 19:56 43.46922 -70.59342 11193 ft 331 kts 200°
2026-05-08 19:56 43.44685 -70.60252 11755 ft 338 kts 200°
2026-05-08 19:56 43.42414 -70.61168 12437 ft 342 kts 200°
2026-05-08 19:57 43.40111 -70.62100 13106 ft 347 kts 200°
2026-05-08 19:57 43.37790 -70.63044 13776 ft 350 kts 201°
2026-05-08 19:57 43.35443 -70.64003 14361 ft 354 kts 201°
2026-05-08 19:57 43.33068 -70.64971 14956 ft 357 kts 201°
2026-05-08 19:58 43.30681 -70.65942 15565 ft 360 kts 201°
2026-05-08 19:58 43.28264 -70.66928 16143 ft 363 kts 201°
2026-05-08 19:58 43.25829 -70.67923 16720 ft 367 kts 201°
2026-05-08 19:58 43.23372 -70.68926 17288 ft 370 kts 200°
2026-05-08 19:59 43.20887 -70.69937 17873 ft 374 kts 200°
2026-05-08 19:59 43.18379 -70.70953 18391 ft 378 kts 200°
2026-05-08 19:59 43.15915 -70.72184 18872 ft 377 kts 210°
2026-05-08 19:59 43.13546 -70.73852 19371 ft 379 kts 213°
2026-05-08 20:00 43.11206 -70.75535 19871 ft 382 kts 213°
2026-05-08 20:00 43.08843 -70.77237 20366 ft 385 kts 214°
2026-05-08 20:00 43.06458 -70.78952 20865 ft 388 kts 214°
2026-05-08 20:00 43.04056 -70.80678 21354 ft 392 kts 214°
2026-05-08 20:01 43.01636 -70.82411 21837 ft 395 kts 215°
2026-05-08 20:01 42.99193 -70.84157 22311 ft 398 kts 215°
2026-05-08 20:01 42.96734 -70.85913 22794 ft 399 kts 217°
2026-05-08 20:01 42.94278 -70.87665 23332 ft 399 kts 217°
2026-05-08 20:02 42.91810 -70.89426 23706 ft 402 kts 217°
2026-05-08 20:02 42.89325 -70.91199 24059 ft 404 kts 217°
2026-05-08 20:02 42.86827 -70.92980 24445 ft 406 kts 217°
2026-05-08 20:02 42.84314 -70.94765 24793 ft 409 kts 217°
2026-05-08 20:03 42.81657 -70.96304 25135 ft 420 kts 210°
2026-05-08 20:03 42.78901 -70.97640 25478 ft 421 kts 210°
2026-05-08 20:03 42.76147 -70.98977 25868 ft 421 kts 210°
2026-05-08 20:03 42.73380 -71.00325 26199 ft 423 kts 210°
2026-05-08 20:04 42.70605 -71.01677 26528 ft 425 kts 210°
2026-05-08 20:04 42.67813 -71.03038 26837 ft 427 kts 210°
2026-05-08 20:04 42.65010 -71.04403 27150 ft 429 kts 210°
2026-05-08 20:04 42.62200 -71.05769 27431 ft 430 kts 210°
2026-05-08 20:05 42.59373 -71.07141 27755 ft 432 kts 210°
2026-05-08 20:05 42.56542 -71.08513 28034 ft 433 kts 210°
2026-05-08 20:05 42.53693 -71.09890 28321 ft 435 kts 210°
2026-05-08 20:05 42.50836 -71.11267 28598 ft 437 kts 210°
2026-05-08 20:06 42.47994 -71.12704 28848 ft 433 kts 214°
2026-05-08 20:06 42.45385 -71.14617 29092 ft 421 kts 224°
2026-05-08 20:06 42.43116 -71.17029 29316 ft 410 kts 233°
2026-05-08 20:06 42.41213 -71.19838 29572 ft 400 kts 241°
2026-05-08 20:07 42.39679 -71.22988 29807 ft 392 kts 249°
2026-05-08 20:07 42.38564 -71.26261 30077 ft 386 kts 255°
2026-05-08 20:07 42.37538 -71.29668 30355 ft 386 kts 254°
2026-05-08 20:07 42.36520 -71.33022 30612 ft 386 kts 254°
2026-05-08 20:08 42.35498 -71.36371 30870 ft 386 kts 254°
2026-05-08 20:08 42.34474 -71.39724 31128 ft 386 kts 253°
2026-05-08 20:08 42.33450 -71.43077 31375 ft 386 kts 253°
2026-05-08 20:08 42.32424 -71.46437 31618 ft 386 kts 253°
2026-05-08 20:09 42.31397 -71.49792 31822 ft 387 kts 253°
2026-05-08 20:09 42.30369 -71.53141 32124 ft 385 kts 253°
2026-05-08 20:09 42.29342 -71.56479 32445 ft 385 kts 253°
2026-05-08 20:09 42.28317 -71.59817 32699 ft 385 kts 253°
2026-05-08 20:10 42.27294 -71.63151 32956 ft 385 kts 253°
2026-05-08 20:10 42.26268 -71.66495 33216 ft 385 kts 252°
2026-05-08 20:10 42.25239 -71.69831 33448 ft 385 kts 252°
2026-05-08 20:10 42.24209 -71.73168 33695 ft 385 kts 252°
2026-05-08 20:11 42.23177 -71.76510 33879 ft 386 kts 252°
2026-05-08 20:11 42.22144 -71.79841 33915 ft 385 kts 252°
2026-05-08 20:11 42.20072 -71.86495 33915 ft 384 kts 252°
2026-05-08 20:12 42.18000 -71.93144 33878 ft 384 kts 252°
2026-05-08 20:12 42.15936 -71.99774 33903 ft 383 kts 252°
2026-05-08 20:13 42.13872 -72.06390 33903 ft 383 kts 252°
2026-05-08 20:13 42.11800 -72.13002 33899 ft 383 kts 252°
2026-05-08 20:14 42.09715 -72.19655 33896 ft 383 kts 252°
2026-05-08 20:14 42.07632 -72.26257 33894 ft 383 kts 252°
2026-05-08 20:15 42.05551 -72.32855 33902 ft 383 kts 252°
2026-05-08 20:15 42.03467 -72.39448 33893 ft 383 kts 252°
2026-05-08 20:16 42.01374 -72.46034 33911 ft 383 kts 252°
2026-05-08 20:16 41.99281 -72.52611 33923 ft 382 kts 252°
2026-05-08 20:17 41.97191 -72.59177 33926 ft 382 kts 252°
2026-05-08 20:17 41.95089 -72.65741 33935 ft 383 kts 251°
2026-05-08 20:18 41.92031 -72.71720 33941 ft 399 kts 234°
2026-05-08 20:18 41.88131 -72.77038 33904 ft 399 kts 234°
2026-05-08 20:19 41.84237 -72.82358 33919 ft 399 kts 234°
2026-05-08 20:19 41.80341 -72.87669 33922 ft 399 kts 234°
2026-05-08 20:20 41.76445 -72.92971 33928 ft 399 kts 234°
2026-05-08 20:20 41.72550 -72.98262 33895 ft 399 kts 234°
2026-05-08 20:21 41.68649 -73.03555 33913 ft 399 kts 234°
2026-05-08 20:21 41.64723 -73.08880 33920 ft 400 kts 234°
2026-05-08 20:22 41.60820 -73.14169 33924 ft 400 kts 234°
2026-05-08 20:22 41.57564 -73.18560 33925 ft 400 kts 233°
2026-05-08 20:23 41.52980 -73.24723 33941 ft 400 kts 233°
2026-05-08 20:23 41.49057 -73.29996 33944 ft 400 kts 233°
2026-05-08 20:24 41.45143 -73.35275 33945 ft 400 kts 234°
2026-05-08 20:24 41.41264 -73.40578 33955 ft 400 kts 234°
2026-05-08 20:25 41.37389 -73.45893 33922 ft 400 kts 234°
2026-05-08 20:25 41.33500 -73.51189 33934 ft 400 kts 234°